Flag for Germany Weather past 2 weeks in Emden, Lower Saxony, Germany

Now
71 °F

Partly sunny.


Feels Like: 76 °F
Forecast: 62 / 84 °F
Wind: 5 mph from South

Location: Emden-Koenigspolder

Current Time: Aug 5, 2015 at 3:23:23 PM

Latest Report: Aug 5, 2015 at 3:00 PM


Visibility: 22 mi

Pressure: 30.03 "Hg

Humidity: 57%

Dew point: 55 °F

Location of EmdenLocation

Historic Weather in Emden — Graph

°F

Emden temperature yesterday

Maximum temperature yesterday: 66 °F (at 3:00 PM)
Minimum temperature yesterday: 59 °F (at 10:00 PM)
Average temperature yesterday: 63 °F

Past Weeks' High & Low Weather Summary

 TemperatureHumidityPressure
High87 °F (Aug 3, 5:00 PM)100% (Jul 22, 5:00 AM)30.14 "Hg (Jul 22, 5:00 AM)
Low44 °F (Aug 1, 7:00 AM)36% (Aug 3, 6:00 PM)29.35 "Hg (Jul 25, 2:00 PM)
Average61 °F78%29.84 "Hg
* Reported Jul 21 2:00 PM — Aug 5 2:00 PM, Emden, Weather by CustomWeather, © 2015

Note: Actual official high and low records may vary slightly from our data, if they occured in-between our weather recording intervals... More about our weather records

Advertising

Emden weather history for previous 24 hours

 ConditionsComfort  
Time TempWeatherWind HumidityBarometerVisibility
2:00 PM
Wed, Aug 5
68 °FOvercast.3 mph63%30.05 "Hg10 mi
1:00 PM68 °FOvercast.5 mph65%30.06 "Hg9 mi
12:00 PM65 °FOvercast.5 mph71%30.06 "Hg9 mi
10:00 AM61 °FPartly sunny.5 mph77%30.06 "Hg16 mi
9:00 AM60 °FPassing clouds.3 mph78%30.05 "Hg7 mi
8:00 AM58 °FPassing clouds.6 mph83%30.05 "Hg8 mi
7:00 AM57 °FSunny.3 mph84%30.03 "Hg9 mi
6:00 AM56 °FPartly sunny.5 mph85%30.03 "Hg13 mi
4:00 AM56 °FOvercast.2 mph92%30.02 "Hg11 mi
3:00 AM56 °FPassing clouds.2 mph92%30.02 "Hg12 mi
2:00 AM57 °FPassing clouds.N/A91%30.01 "Hg13 mi
1:00 AM58 °FClear.3 mph88%30.01 "Hg14 mi
12:00 AM56 °FClear.2 mph90%30.00 "Hg16 mi
10:00 PM
Tue, Aug 4
59 °FClear.2 mph88%29.98 "Hg10 mi
9:00 PM62 °FPartly sunny.N/A83%29.96 "Hg22 mi
8:00 PM65 °FOvercast.5 mph87%29.95 "Hg13 mi
7:00 PM61 °FLight freezing rain. Low clouds.6 mph92%29.94 "Hg8 mi
6:00 PM63 °FDrizzle. Low clouds.7 mph95%29.92 "Hg9 mi
5:00 PM65 °FLight rain. Low clouds.5 mph96%29.89 "Hg2 mi
4:00 PM65 °FLight rain. Low clouds.3 mph98%29.89 "Hg2 mi
3:00 PM66 °FLight rain. Low clouds.N/A96%29.88 "Hg3 mi
Weather by CustomWeather, © 2015

See weather overviewHow to use our weather pages